Weather History for Hobart, OK

Change the Weather History Date:

Friday, January 18, 2013

  Actual Average Record
Temperature  
Mean Temperature 44 °F -  
Max Temperature 60 °F 48 °F 71 °F (2006)
Min Temperature 28 °F 26 °F 14 °F (2008)
Degree Days  
Heating Degree Days 21    
Moisture  
Dew Point 30 °F    
Average Humidity 62    
Maximum Humidity 89    
Minimum Humidity 32    
Precipitation  
Precipitation 0.00 in - - ()
Sea Level Pressure  
Sea Level Pressure 30.33 in    
Wind  
Wind Speed 13 mph (SSW)    
Max Wind Speed 22 mph    
Max Gust Speed 29 mph    
Visibility 10 miles    
Events      
Averages and records for this station are not official NWS values.
T = Trace of Precipitation, MM = Missing Value Source: NWS Daily Summary

Daily Weather History Graph

Daily Weather History Graph

Search for Another Location

Airport:

Trip Planner

Search our weather history database for the weather conditions in past years. The results will help you decide how hot, cold, wet, or windy it might be!

Date:

Astronomy

Jan. 18, 2013 Rise Set
Actual Time 7:42 AM CST 5:51 PM CST
Civil Twilight 7:15 AM CST 6:18 PM CST
Nautical Twilight 6:44 AM CST 6:49 PM CST
Astronomical Twilight 6:14 AM CST 7:19 PM CST
Moon 11:41 AM CST (1/18) 12:24 AM CST (1/18)
Length of Visible Light 11h 03m
Length of Day
10h 08m
Waxing Crescent, 47% of the Moon is Illuminated
Jan 18
Waxing Crescent
Jan 18
First Quarter
Jan 26
Full
Feb 3
Last Quarter
Feb 10
New

Hourly Weather History & Observations

Time (CST) Temp. Windchill Dew Point Humidity Pressure Visibility Wind Dir Wind Speed Gust Speed Precip Events Conditions
12:53 AM 33.1 °F 24.4 °F 27.0 °F 78% 30.49 in 10.0 mi SSW 11.5 mph - N/A   Clear
1:53 AM 34.0 °F 25.5 °F 28.0 °F 79% 30.48 in 10.0 mi South 11.5 mph - N/A   Clear
2:53 AM 30.9 °F - 27.0 °F 85% 30.48 in 10.0 mi North - - N/A   Clear
3:53 AM 32.0 °F 24.2 °F 27.0 °F 82% 30.46 in 10.0 mi South 9.2 mph - N/A   Clear
4:53 AM 30.9 °F 22.8 °F 27.0 °F 85% 30.43 in 10.0 mi South 9.2 mph - N/A   Clear
5:53 AM 30.9 °F 22.2 °F 26.1 °F 82% 30.42 in 10.0 mi SSW 10.4 mph - N/A   Clear
6:53 AM 30.0 °F 21.7 °F 26.1 °F 85% 30.43 in 10.0 mi SSW 9.2 mph - N/A   Clear
7:53 AM 28.9 °F 20.4 °F 26.1 °F 89% 30.43 in 10.0 mi SSW 9.2 mph - N/A   Clear
8:53 AM 34.0 °F 26.0 °F 28.9 °F 82% 30.43 in 10.0 mi South 10.4 mph - N/A   Clear
9:53 AM 39.9 °F 31.8 °F 32.0 °F 73% 30.43 in 10.0 mi SSW 15.0 mph - N/A   Clear
10:53 AM 48.0 °F - 30.9 °F 52% 30.43 in 10.0 mi SSW 18.4 mph - N/A   Clear
11:53 AM 51.1 °F - 32.0 °F 48% 30.38 in 10.0 mi SSW 20.7 mph - N/A   Clear
12:53 PM 54.0 °F - 32.0 °F 43% 30.33 in 10.0 mi SSW 20.7 mph 27.6 mph N/A   Clear
1:53 PM 57.9 °F - 32.0 °F 37% 30.29 in 10.0 mi SSW 19.6 mph - N/A   Clear
2:53 PM 59.0 °F - 30.0 °F 33% 30.25 in 10.0 mi SSW 20.7 mph 27.6 mph N/A   Clear
3:53 PM 60.1 °F - 30.0 °F 32% 30.22 in 10.0 mi SSW 21.9 mph 28.8 mph N/A   Clear
4:53 PM 57.9 °F - 30.9 °F 36% 30.21 in 10.0 mi South 19.6 mph - N/A   Clear
5:53 PM 53.1 °F - 32.0 °F 45% 30.21 in 10.0 mi SSW 15.0 mph - N/A   Clear
6:53 PM 46.9 °F - 32.0 °F 56% 30.23 in 10.0 mi South 11.5 mph - N/A   Clear
7:53 PM 48.0 °F - 32.0 °F 54% 30.21 in 10.0 mi South 16.1 mph - N/A   Clear
8:53 PM 46.0 °F 39.3 °F 30.9 °F 56% 30.20 in 10.0 mi South 16.1 mph - N/A   Clear
9:53 PM 46.0 °F 39.6 °F 30.9 °F 56% 30.19 in 10.0 mi South 15.0 mph - N/A   Clear
10:53 PM 44.1 °F 37.4 °F 30.9 °F 60% 30.17 in 10.0 mi South 13.8 mph - N/A   Clear
11:53 PM 43.0 °F 36.0 °F 30.9 °F 62% 30.16 in 10.0 mi South 13.8 mph - N/A   Clear